GW1374 Weather Reports


Display with metric or nautical units.
time (UTC)temp
F
wind
direction
speed
MPH
gust
MPH
rain 1hr
in
rain 24hr
in
rain mn
in
humidity
%
barometer
mb
20260510230043 54 48 2.0 9.0 0.00 0.09 0.09 54 1015.3
20260510224557 55 101 3.0 10.0 0.00 0.09 0.09 52 1015.1
20260510223043 56 22 2.0 5.0 0.00 0.09 0.09 50 1014.6
20260510221552 57 47 2.0 10.0 0.00 0.09 0.09 49 1014.3
20260510220044 57 64 2.0 9.0 0.00 0.09 0.09 48 1014.0
20260510214601 58 51 3.0 10.0 0.00 0.09 0.09 47 1014.0
20260510213044 59 330 2.0 7.0 0.00 0.09 0.09 47 1013.7
20260510211543 60 9 2.0 8.0 0.00 0.09 0.09 45 1013.7
20260510210040 61 297 3.0 9.0 0.00 0.09 0.09 42 1013.5
20260510204550 62 221 2.0 9.0 0.00 0.09 0.09 45 1013.2
20260510203043 61 36 2.0 7.0 0.00 0.09 0.09 45 1012.9
20260510201543 61 19 2.0 10.0 0.00 0.09 0.09 43 1012.8
20260510200041 61 31 2.0 8.0 0.00 0.09 0.09 45 1012.8
20260510194553 59 280 2.0 9.0 0.00 0.09 0.09 51 1013.0
20260510193053 59 282 1.0 7.0 0.00 0.09 0.09 50 1013.1
20260510191542 59 51 2.0 5.0 0.00 0.09 0.09 50 1013.2
20260510190047 60 34 2.0 6.0 0.00 0.09 0.09 49 1013.0
20260510184552 60 36 1.0 4.0 0.00 0.09 0.09 49 1013.3
20260510183042 61 338 2.0 7.0 0.00 0.09 0.09 50 1013.3
20260510181554 60 250 1.0 8.0 0.00 0.09 0.09 49 1013.2
20260510180048 59 265 1.0 4.0 0.00 0.09 0.09 47 1013.0
20260510174550 59 15 1.0 8.0 0.00 0.09 0.09 54 1013.4
20260510173041 58 9 2.0 7.0 0.00 0.09 0.09 49 1013.5
20260510171542 57 87 2.0 7.0 0.00 0.09 0.09 54 1013.5
20260510170047 57 61 2.0 5.0 0.00 0.09 0.09 54 1013.4
20260510164539 56 16 1.0 6.0 0.00 0.10 0.09 56 1013.3
20260510163049 54 9 1.0 5.0 0.00 0.10 0.09 65 1013.4
20260510161542 53 28 1.0 4.0 0.00 0.10 0.09 68 1013.5
20260510160050 52 59 1.0 4.0 0.00 0.10 0.09 68 1013.7
20260510154548 52 9 1.0 5.0 0.00 0.11 0.09 69 1013.6
20260510153040 52 338 1.0 4.0 0.00 0.11 0.09 78 1013.5
20260510151546 51 51 1.0 5.0 0.00 0.11 0.09 79 1013.3
20260510150051 51 74 1.0 4.0 0.00 0.11 0.09 81 1013.3
20260510144544 50 15 1.0 4.0 0.00 0.14 0.09 83 1012.9
20260510143042 49 51 2.0 4.0 0.00 0.14 0.09 84 1012.8
20260510141547 49 0 1.0 4.0 0.00 0.14 0.09 86 1012.6
20260510140047 49 93 1.0 4.0 0.00 0.14 0.09 87 1012.3
20260510134547 49 9 1.0 4.0 0.00 0.18 0.09 89 1012.2
20260510133047 48 9 2.0 5.0 0.00 0.18 0.09 90 1012.0
20260510131542 47 19 1.0 3.0 0.00 0.18 0.09 91 1011.9
20260510130051 47 34 1.0 6.0 0.00 0.18 0.09 92 1012.0
20260510124558 49 9 2.0 7.0 0.00 0.26 0.09 95 1012.2
20260510123049 49 271 1.0 3.0 0.00 0.26 0.09 96 1011.6
20260510121546 49 254 0.0 2.0 0.00 0.26 0.09 96 1011.3
20260510120046 48 0 1.0 2.0 0.00 0.26 0.09 96 1011.2
20260510114543 48 275 1.0 2.0 0.00 0.34 0.09 96 1011.0
20260510113043 48 0 0.0 2.0 0.00 0.34 0.09 96 1010.6
20260510111546 48 0 0.0 2.0 0.00 0.34 0.09 96 1010.3
20260510110051 48 243 0.0 2.0 0.00 0.34 0.09 96 1010.0
20260510104547 48 0 0.0 2.0 0.00 0.37 0.09 96 1009.7
20260510103052 48 212 1.0 2.0 0.00 0.37 0.09 96 1009.5
20260510101547 47 239 0.0 2.0 0.00 0.37 0.09 96 1009.5
20260510100041 47 205 1.0 2.0 0.00 0.37 0.09 96 1009.2
20260510094546 47 0 0.0 2.0 0.00 0.37 0.09 96 1009.1
20260510093043 47 0 1.0 2.0 0.00 0.37 0.09 96 1009.0
20260510091547 47 178 0.0 2.0 0.00 0.37 0.09 96 1008.8
20260510090049 47 0 0.0 2.0 0.00 0.37 0.09 96 1008.7
20260510084542 47 0 0.0 1.0 0.00 0.37 0.09 96 1008.6
20260510083044 47 0 0.0 2.0 0.00 0.37 0.09 96 1008.6
20260510081551 47 0 0.0 2.0 0.00 0.37 0.09 96 1008.5
20260510080049 47 0 0.0 1.0 0.00 0.37 0.09 96 1008.4
20260510074547 47 0 0.0 1.0 0.00 0.37 0.09 96 1008.3
20260510073044 47 200 1.0 2.0 0.00 0.37 0.09 96 1008.2
20260510071545 47 205 1.0 3.0 0.01 0.37 0.09 95 1008.1
20260510070048 47 212 2.0 4.0 0.01 0.37 0.09 95 1008.1
20260510064541 47 205 1.0 3.0 0.01 0.37 0.09 96 1007.9
20260510063042 48 221 1.0 3.0 0.01 0.37 0.09 96 1008.0
20260510061557 48 209 1.0 3.0 0.00 0.36 0.08 96 1008.2
20260510060048 48 243 2.0 3.0 0.01 0.36 0.08 95 1008.3
20260510054559 48 208 2.0 4.0 0.02 0.36 0.08 95 1008.3
20260510053043 48 232 2.0 5.0 0.05 0.36 0.08 95 1008.5
20260510051540 48 216 1.0 4.0 0.08 0.36 0.08 95 1008.8
20260510050053 48 178 1.0 3.0 0.07 0.35 0.07 95 1009.1
20260510044548 48 221 1.0 2.0 0.06 0.34 0.06 94 1009.5
20260510043043 49 178 0.0 3.0 0.03 0.31 0.03 93 1009.3
20260510041602 49 303 1.0 4.0 0.00 0.28 0.00 93 1009.6
20260510040048 50 292 1.0 5.0 0.00 0.28 0.00 92 1009.5
20260510034547 50 312 2.0 12.0 0.00 0.28 0.28 93 1008.9
20260510033047 49 323 1.0 3.0 0.00 0.28 0.28 94 1008.5
20260510031553 49 205 1.0 2.0 0.00 0.28 0.28 94 1007.9
20260510030048 49 193 0.0 3.0 0.00 0.28 0.28 94 1008.2
20260510024605 49 193 0.0 2.0 0.00 0.28 0.28 94 1008.1
20260510023043 50 0 0.0 2.0 0.00 0.28 0.28 94 1007.8
20260510021544 50 205 1.0 2.0 0.00 0.28 0.28 94 1007.5
20260510020049 50 205 1.0 3.0 0.00 0.28 0.28 94 1007.6
20260510014552 50 221 1.0 3.0 0.00 0.28 0.28 94 1007.5
20260510013057 50 215 1.0 3.0 0.00 0.28 0.28 94 1007.3
20260510011549 50 205 1.0 4.0 0.00 0.28 0.28 94 1007.2
20260510010042 51 221 1.0 4.0 0.00 0.28 0.28 94 1007.0
20260510004546 51 217 1.0 3.0 0.00 0.28 0.28 94 1006.9
20260510003041 51 215 1.0 4.0 0.00 0.28 0.28 94 1006.5
20260510001547 51 178 1.0 2.0 0.00 0.28 0.28 94 1006.7
20260510000048 51 212 1.0 2.0 0.00 0.28 0.28 93 1006.7
20260509234541 51 227 1.0 3.0 0.00 0.28 0.28 93 1006.5
20260509233050 52 221 1.0 3.0 0.00 0.28 0.28 92 1006.5
20260509231555 52 0 1.0 3.0 0.00 0.28 0.28 92 1006.1